Date String (YYYY-MM-DD hh:mm:ss) UTC,Instrument flags,absolute air pressure of the measurement (hPa),sample flow rate (lpm),inlet stack bypass flow (lpm),air temperature of the measurement (°C),ambient temperature measured by the external sensor (°C),aerosol sample conditioner tube jacket temperature (°C),OPC LED temperature (°C),internal box temperature (°C),relative humidity of the measurement (%),span deviation,mass concentration of particles derived from Lorenz-Mie calculation of OPC scattering (μg/m³),mass concentration of particles derived from Lorenz-Mie calculation of OPC scattering (μg/m³),mass concentration of particles derived from Lorenz-Mie calculation of OPC scattering (μg/m³)
DateTimeUTC,F1_M11,P_M11,Q1_M11,Q2_M11,T1_M11,T2_M11,T3_M11,T4_M11,T5_M11,U1_M11,ZSPAN_M11,X0_M11,X2_M11,X1_M11
2024-06-17 17:00:00,SystemResetWarning,0820.0,5.00,000.00,030.2,029.7,000.0,038.4,032.0,033.1,0001.3,0016.43,0008.36,0007.13
2024-06-17 17:01:00,SystemResetWarning,0819.9,5.00,000.00,030.2,029.7,000.0,038.4,032.0,032.7,0001.5,0016.69,0008.40,0007.12
2024-06-17 17:02:00,SystemResetWarning,0820.0,5.01,000.00,030.3,029.8,000.0,038.5,032.1,032.3,0001.9,0016.36,0008.43,0007.15
2024-06-17 17:03:00,SystemResetWarning,0820.1,5.00,000.00,030.3,029.9,000.0,038.5,032.1,032.3,0001.8,0016.30,0008.38,0007.16
2024-06-17 17:04:00,SystemResetWarning,0819.8,4.99,000.00,030.4,029.6,000.0,038.6,032.0,032.5,0001.9,0016.27,0008.38,0007.13
2024-06-17 17:05:00,SystemResetWarning,0819.8,4.99,000.00,030.1,027.6,000.0,038.6,031.1,033.1,0001.5,0016.93,0008.39,0007.11
2024-06-17 17:06:00,SystemResetWarning,0820.0,5.01,000.00,029.7,026.3,000.0,038.6,030.4,034.0,0001.8,0016.89,0008.36,0007.08
2024-06-17 17:07:00,SystemResetWarning,0820.0,5.01,000.00,029.5,026.4,000.0,038.5,030.4,033.9,0002.5,0017.33,0008.38,0007.08
2024-06-17 17:08:00,SystemResetWarning,0819.8,5.00,000.00,029.5,026.8,000.0,038.4,030.6,033.8,0003.0,0017.43,0008.50,0007.11
2024-06-17 17:09:00,SystemResetWarning,0819.7,5.00,000.00,029.5,027.3,000.0,038.3,030.8,034.0,0002.8,0017.36,0008.54,0007.14
2024-06-17 17:10:00,SystemResetWarning,0819.8,5.00,000.00,029.5,027.7,000.0,038.2,031.0,034.1,0003.0,0017.44,0008.61,0007.15
2024-06-17 17:11:00,SystemResetWarning,0819.8,5.00,000.00,029.5,028.0,000.0,038.2,031.1,034.5,0002.5,0017.72,0008.65,0007.15
2024-06-17 17:12:00,SystemResetWarning,0819.7,5.00,000.00,029.6,028.3,000.0,038.2,031.2,034.5,0000.9,0018.21,0008.64,0007.16
2024-06-17 17:13:00,SystemResetWarning,0820.0,5.00,000.00,029.6,028.5,000.0,038.2,031.3,034.3,0000.0,0018.27,0008.64,0007.16
2024-06-17 17:14:00,SystemResetWarning,0820.1,4.99,000.00,029.7,028.7,000.0,038.2,031.4,034.1,0000.0,0017.83,0008.61,0007.13
2024-06-17 17:15:00,SystemResetWarning,0819.9,5.01,000.00,029.7,028.9,000.0,038.2,031.5,033.4,0000.0,0018.13,0008.58,0007.11
2024-06-17 17:16:00,SystemResetWarning,0819.9,5.00,000.00,029.8,029.0,000.0,038.2,031.6,033.3,0000.7,0017.39,0008.55,0007.16
2024-06-17 17:17:00,SystemResetWarning,0819.7,5.01,000.00,029.8,029.2,000.0,038.2,031.6,033.3,0000.8,0017.25,0008.57,0007.21
2024-06-17 17:18:00,SystemResetWarning,0819.6,5.00,000.00,029.9,029.3,000.0,038.2,031.7,032.9,0000.6,0017.48,0008.61,0007.27
2024-06-17 17:19:00,SystemResetWarning,0819.5,4.99,000.00,029.9,029.4,000.0,038.2,031.8,032.7,0000.5,0018.44,0008.62,0007.30
2024-06-17 17:20:00,SystemResetWarning,0819.4,4.99,000.00,030.0,029.5,000.0,038.2,031.8,032.6,0000.3,0019.12,0008.66,0007.32
2024-06-17 17:21:00,SystemResetWarning,0819.5,5.00,000.00,030.1,029.5,000.0,038.3,031.9,033.0,0000.1,0019.39,0008.68,0007.36
2024-06-17 17:22:00,SystemResetWarning,0819.5,5.00,000.00,030.1,029.6,000.0,038.3,031.9,032.8,0000.2,0019.99,0008.65,0007.37
2024-06-17 17:23:00,SystemResetWarning,0819.4,5.01,000.00,030.2,029.7,000.0,038.3,032.0,032.1,0000.5,0019.24,0008.67,0007.40
2024-06-17 17:24:00,SystemResetWarning,0819.4,5.00,000.00,030.2,029.8,000.0,038.4,032.0,032.0,0000.5,0019.29,0008.71,0007.42
2024-06-17 17:25:00,SystemResetWarning,0819.5,5.00,000.00,030.3,029.7,000.0,038.4,032.0,032.4,-000.2,0020.47,0008.73,0007.44
2024-06-17 17:26:00,SystemResetWarning,0819.4,4.98,000.00,030.1,028.3,000.0,038.5,031.4,032.8,0000.0,0019.90,0008.73,0007.42
2024-06-17 17:27:00,SystemResetWarning,0819.3,5.00,000.00,029.7,026.5,000.0,038.5,030.4,033.2,0000.0,0020.04,0008.68,0007.38
2024-06-17 17:28:00,SystemResetWarning,0819.3,5.01,000.00,029.5,026.2,000.0,038.5,030.2,033.8,0000.0,0020.01,0008.70,0007.35
2024-06-17 17:29:00,SystemResetWarning,0819.2,5.01,000.00,029.3,026.6,000.0,038.3,030.4,034.0,0000.0,0020.14,0008.74,0007.35
2024-06-17 17:30:00,SystemResetWarning,0819.3,5.00,000.00,029.3,027.0,000.0,038.2,030.6,034.3,0000.0,0019.71,0008.76,0007.32
2024-06-17 17:31:00,SystemResetWarning,0819.3,5.00,000.00,029.4,027.5,000.0,038.1,030.8,034.2,0000.3,0019.24,0008.68,0007.28
2024-06-17 17:32:00,SystemResetWarning,0819.3,5.00,000.00,029.4,027.9,000.0,038.1,031.0,034.5,0000.9,0019.49,0008.59,0007.23
2024-06-17 17:33:00,SystemResetWarning,0819.4,5.01,000.00,029.5,028.2,000.0,038.1,031.1,033.9,0001.1,0019.29,0008.63,0007.22
2024-06-17 17:34:00,SystemResetWarning,0819.3,4.99,000.00,029.5,028.4,000.0,038.0,031.2,034.2,0001.4,0019.63,0008.61,0007.19
2024-06-17 17:35:00,SystemResetWarning,0819.3,5.00,000.00,029.6,028.6,000.0,038.0,031.3,033.8,0001.1,0020.18,0008.58,0007.16
2024-06-17 17:36:00,SystemResetWarning,0819.2,5.00,000.00,029.6,028.8,000.0,038.0,031.4,032.9,0001.8,0019.58,0008.56,0007.15
2024-06-17 17:37:00,SystemResetWarning,0819.3,4.99,000.00,029.7,029.0,000.0,038.1,031.5,032.8,0001.2,0019.40,0008.56,0007.16
2024-06-17 17:38:00,SystemResetWarning,0819.1,4.99,000.00,029.8,029.1,000.0,038.1,031.6,032.9,0002.4,0018.89,0008.57,0007.17
2024-06-17 17:39:00,SystemResetWarning,0819.0,5.00,000.00,029.8,029.2,000.0,038.1,031.6,032.6,0002.4,0018.96,0008.56,0007.16
2024-06-17 17:40:00,SystemResetWarning,0819.0,5.00,000.00,029.9,029.3,000.0,038.1,031.7,032.6,0002.5,0019.28,0008.53,0007.14
2024-06-17 17:41:00,SystemResetWarning,0819.0,5.00,000.00,029.9,029.4,000.0,038.1,031.8,032.8,0002.9,0019.06,0008.39,0007.09
2024-06-17 17:42:00,SystemResetWarning,0819.0,5.00,000.00,030.0,029.5,000.0,038.2,031.8,033.0,0002.4,0019.12,0008.32,0007.06
2024-06-17 17:43:00,SystemResetWarning,0819.1,5.00,000.00,030.1,029.6,000.0,038.2,031.9,033.4,0002.1,0019.27,0008.29,0007.03
2024-06-17 17:44:00,SystemResetWarning,0819.3,5.00,000.00,030.1,029.4,000.0,038.3,031.7,032.9,0000.9,0018.96,0008.21,0006.97
2024-06-17 17:45:00,SystemResetWarning,0819.0,5.00,000.00,029.8,027.4,000.0,038.3,030.8,033.3,0001.9,0018.28,0008.16,0006.92
2024-06-17 17:46:00,SystemResetWarning,0819.0,5.00,000.00,029.5,026.2,000.0,038.3,030.1,033.7,0002.3,0017.84,0008.11,0006.90
2024-06-17 17:47:00,SystemResetWarning,0818.9,5.00,000.00,029.3,026.3,000.0,038.3,030.1,034.1,0002.4,0017.21,0008.12,0006.93
2024-06-17 17:48:00,SystemResetWarning,0818.9,5.01,000.00,029.2,026.7,000.0,038.1,030.3,034.3,0002.2,0017.12,0008.14,0006.93
2024-06-17 17:49:00,SystemResetWarning,0819.0,5.00,000.00,029.2,027.1,000.0,038.0,030.6,034.5,0001.4,0017.75,0008.16,0006.92
2024-06-17 17:50:00,SystemResetWarning,0818.8,5.00,000.00,029.3,027.5,000.0,038.0,030.8,035.1,0002.0,0018.85,0008.12,0006.91
2024-06-17 17:51:00,SystemResetWarning,0819.1,5.01,000.00,029.3,027.9,000.0,037.9,030.9,034.3,0000.9,0018.43,0008.10,0006.90
2024-06-17 17:52:00,SystemResetWarning,0819.0,5.00,000.00,029.4,028.2,000.0,037.9,031.1,034.3,0000.0,0018.48,0008.14,0006.92
2024-06-17 17:53:00,SystemResetWarning,0819.4,4.99,000.00,029.4,028.4,000.0,037.9,031.2,034.3,0000.5,0018.69,0008.21,0006.92
2024-06-17 17:54:00,SystemResetWarning,0819.5,5.00,000.00,029.5,028.7,000.0,037.9,031.3,033.8,0002.3,0019.09,0008.31,0006.95
2024-06-17 17:55:00,SystemResetWarning,0819.3,5.00,000.00,029.6,028.8,000.0,037.9,031.4,034.1,0001.9,0019.47,0008.40,0007.00
2024-06-17 17:56:00,SystemResetWarning,0818.9,5.01,000.00,029.6,029.0,000.0,037.9,031.5,033.5,0001.8,0020.84,0008.41,0007.03
2024-06-17 17:57:00,SystemResetWarning,0818.8,5.01,000.00,029.7,029.1,000.0,038.0,031.5,032.7,0001.7,0020.99,0008.49,0007.04
2024-06-17 17:58:00,SystemResetWarning,0818.7,5.00,000.00,029.8,029.3,000.0,038.0,031.6,032.6,0001.4,0022.41,0008.52,0007.04
2024-06-17 17:59:00,SystemResetWarning,0818.8,5.00,000.00,029.8,029.4,000.0,038.0,031.7,032.6,0000.9,0022.75,0008.49,0007.03
